Regional Weather Roundup
Issued by NWS

Home | Current Version | Previous Version | Text Only | Print | Product List | Glossary On
Versions: 1 2 3 4 5 6 7 8 9 10 11 12 13 14 15 16 17 18 19 20 21 22 23 24 25 26 27 28 29 30 31 32 33 34 35 36 37 38 39 40 41 42 43 44 45 46 47 48 49 50
000
ASUS43 KMKX 240025
RWRWI

WISCONSIN REGIONAL WEATHER ROUNDUP
NATIONAL WEATHER SERVICE MILWAUKEE/SULLIVAN WI
700 PM CDT THU OCT 23 2014

NOTE: "FAIR" INDICATES FEW OR NO CLOUDS BELOW 12,000 FEET WITH NO
SIGNIFICANT WEATHER AND/OR OBSTRUCTIONS TO VISIBILITY.

WIZ001-002-006>008-014>016-023>028-240100-
NORTHWEST WISCONSIN

CITY           SKY/WX    TMP DP  RH WIND       PRES   REMARKS
SUPERIOR ARPT  CLEAR     47  46  95 S5        29.94S
6HR MIN TEMP:  47; 6HR MAX TEMP:  60;

ASHLAND        CLOUDY    50  48  93 S5        29.97S
6HR MIN TEMP:  50; 6HR MAX TEMP:  54;

HAYWARD        CLOUDY    51  48  89 S6        29.99R
6HR MIN TEMP:  50; 6HR MAX TEMP:  53;

SIREN          CLEAR     51  49  92 SE5       29.97S
6HR MIN TEMP:  51; 6HR MAX TEMP:  59;

CUMBERLAND     CLEAR     46  45  93 S5        29.99R
RICE LAKE      PTCLDY    49  47  92 SE6       30.01S
6HR MIN TEMP:  49; 6HR MAX TEMP:  54;

CHETEK         CLOUDY    51  49  96 CALM      30.01R
6HR MIN TEMP:  49; 6HR MAX TEMP:  52;

LADYSMITH      CLOUDY    49  49  97 S3        30.03R FOG
6HR MIN TEMP:  47; 6HR MAX TEMP:  50;

EAU CLAIRE     CLOUDY    52  50  93 S3        30.01R
6HR MIN TEMP:  50; 6HR MAX TEMP:  52;

MENOMONIE      CLOUDY    53  51  94 SE5       30.01S
NEW RICHMOND   CLEAR     51  49  95 SE5       30.00R
6HR MIN TEMP:  51; 6HR MAX TEMP:  61;

OSCEOLA        CLEAR     55  53  94 SE7       30.01R
6HR MIN TEMP:  55; 6HR MAX TEMP:  63;

$$

WIZ003>005-009-010-017-018-240100-
NORTH CENTRAL WISCONSIN

CITY           SKY/WX    TMP DP  RH WIND       PRES   REMARKS
MANITOWISH WTR FOG       45  45 100 SW7       30.00R VSB 3/4
6HR MIN TEMP:  44; 6HR MAX TEMP:  46;

ARBOR VITAE    FOG       45  44  96 S3        30.00S VSB 1/2
6HR MIN TEMP:  44; 6HR MAX TEMP:  46; 6HR PCP:  0.01;

WOODRUFF       FOG       45  44  96 S3        30.00S VSB 1/2
6HR MIN TEMP:  44; 6HR MAX TEMP:  46; 6HR PCP:  0.01;

RHINELANDER    CLOUDY    44  44 100 SW5       30.02R FOG
6HR MIN TEMP:  44; 6HR MAX TEMP:  45; 6HR PCP:  0.04;

EAGLE RIVER    FOG       44  44 100 CALM      30.00S VSB 3/4
6HR MIN TEMP:  44; 6HR MAX TEMP:  45; 6HR PCP:  0.04;

LAND O LAKES   FOG       45  45  99 SW5       30.01R VSB 1
6HR MIN TEMP:  45; 6HR MAX TEMP:  46; 6HR PCP:  0.03;

PHILLIPS       CLOUDY    46  46 100 SW3       30.01R FOG
6HR MIN TEMP:  44; 6HR MAX TEMP:  47; 6HR PCP:  0.01;

TOMAHAWK       FOG       45  44  97 CALM      30.02R VSB 1
6HR MIN TEMP:  43; 6HR MAX TEMP:  45; 6HR PCP:  0.04;

MEDFORD        FOG       46  45  99 S3        30.02S VSB 1/4
6HR MIN TEMP:  44; 6HR MAX TEMP:  46; 6HR PCP:  0.01;

MERRILL        CLOUDY    46  46 100 CALM      30.03R FOG
6HR MIN TEMP:  44; 6HR MAX TEMP:  46;

$$

WIZ029-030-035-036-043>047-240100-
CENTRAL WISCONSIN

CITY           SKY/WX    TMP DP  RH WIND       PRES   REMARKS
WAUSAU         FOG       46  46 100 S6        30.02R VSB 3/4
6HR MIN TEMP:  45; 6HR MAX TEMP:  47; 6HR PCP:  0.02;

MOSINEE        FOG       46  46 100 VRB6      30.03S VSB 1/2
MARSHFIELD     FOG       47  46  97 S5        30.02R VSB 1/4
6HR MIN TEMP:  46; 6HR MAX TEMP:  48; 6HR PCP: TRACE;

STEVENS POINT  CLOUDY    44  44  99 S5        30.03S FOG
6HR MIN TEMP:  42; 6HR MAX TEMP:  45; 6HR PCP:  0.01;

WAUPACA        DRIZZLE   49  48  96 CALM      30.04S
6HR MIN TEMP:  47; 6HR MAX TEMP:  49; 6HR PCP:  0.35;

WAUTOMA        CLOUDY    48  46  93 CALM      30.05R FOG
6HR MIN TEMP:  46; 6HR MAX TEMP:  48; 6HR PCP: TRACE;

WISC RAPIDS    CLOUDY    47  46  97 SW5       30.05R FOG
6HR MIN TEMP:  46; 6HR MAX TEMP:  47; 6HR PCP:  0.01;

CAMP DOUGLAS   CLOUDY    48  48 100 SW1       30.04R FOG
                                      6HR PCP:  0.11;

$$

WIZ011>013-019>022-031-037>040-048>050-240100-
NORTHEAST WISCONSIN

CITY           SKY/WX    TMP DP  RH WIND       PRES   REMARKS
ANTIGO         FOG       43  43 100 S5        30.02S VSB 1/4
6HR MIN TEMP:  40; 6HR MAX TEMP:  44; 6HR PCP:  0.04;

SHAWANO        CLOUDY    49  47  93 CALM      30.04S FOG
6HR MIN TEMP:  47; 6HR MAX TEMP:  49; 6HR PCP:  0.30;

OCONTO         CLOUDY    48  48 100 CALM      30.04S
6HR MIN TEMP:  48; 6HR MAX TEMP:  54;

STURGEON BAY   CLOUDY    48  45  87 S8        30.06R
6HR MIN TEMP:  48; 6HR MAX TEMP:  55;

GREEN BAY      CLOUDY    49  48  97 CALM      30.05S FOG
6HR MIN TEMP:  49; 6HR MAX TEMP:  54; 6HR PCP:  0.07;

MANITOWOC      LGT RAIN  50  48  93 S8        30.05F
6HR MIN TEMP:  49; 6HR MAX TEMP:  53; 6HR PCP:  0.04;

APPLETON       CLOUDY    48  46  93 S6        30.04S FOG
CLINTONVILLE   LGT RAIN  46  45  93 S6        30.03F
OSHKOSH        CLOUDY    49  48  97 CALM      30.04S FOG
6HR MIN TEMP:  49; 6HR MAX TEMP:  53; 6HR PCP:  0.20;

$$

WIZ032>034-041-042-053>061-240100-
SOUTHWEST WISCONSIN

CITY           SKY/WX    TMP DP  RH WIND       PRES   REMARKS
LA CROSSE      CLOUDY    50  48  93 SE6       30.02S FOG
6HR MIN TEMP:  50; 6HR MAX TEMP:  50; 6HR PCP: TRACE;

SPARTA         CLOUDY    47  47  98 CALM      30.05R FOG
6HR MIN TEMP:  47; 6HR MAX TEMP:  47;

VIROQUA        CLOUDY    47  47 100 CALM      30.03S VSB 1/2
6HR MIN TEMP:  45; 6HR MAX TEMP:  47;

BOSCOBEL       CLOUDY    50  48  93 CALM      30.04F FOG
6HR MIN TEMP:  48; 6HR MAX TEMP:  51; 6HR PCP:  0.02;

PRAIRIE DU CHI CLOUDY    50  48  94 CALM      30.04S FOG
6HR MIN TEMP:  47; 6HR MAX TEMP:  51;

PLATTEVILLE    CLOUDY    50  49  96 CALM      30.05R
6HR MIN TEMP:  47; 6HR MAX TEMP:  51; 6HR PCP:  0.07;

$$

WIZ056-057-062-063-064-067-068-240100-
SOUTH CENTRAL WISCONSIN

CITY           SKY/WX    TMP DP  RH WIND       PRES   REMARKS
REEDSBURG      CLOUDY    47  46  97 W5        30.04R
6HR MIN TEMP:  45; 6HR MAX TEMP:  47; 6HR PCP:  0.21;

BARABOO/DELLS  CLOUDY    47  46  94 CALM      30.04R FOG
6HR MIN TEMP:  46; 6HR MAX TEMP:  48; 6HR PCP:  0.18;

LONE ROCK      CLOUDY    53  47  79 CALM      30.05R HAZE
6HR MIN TEMP:  50; 6HR MAX TEMP:  53; 6HR PCP:  0.11;

MINERAL POINT  CLOUDY    52  48  87 CALM      30.04R FOG
MADISON        CLOUDY    52  49  89 CALM      30.04S
6HR MIN TEMP:  50; 6HR MAX TEMP:  52; 6HR PCP:  0.09;

MIDDLETON      CLOUDY    52  50  93 S3        30.04S
6HR MIN TEMP:  50; 6HR MAX TEMP:  53; 6HR PCP:  0.11;

WATERTOWN      CLOUDY    51  51 100 CALM      30.05R
6HR MIN TEMP:  50; 6HR MAX TEMP:  55; 6HR PCP:  0.07;

MONROE         CLOUDY    50  50 100 S7        30.04S
JANESVILLE     CLOUDY    52  48  87 S8        30.05S
$$

WIZ051-052-058>065-066-070>072-240100-
SOUTHEAST WISCONSIN

CITY           SKY/WX    TMP DP  RH WIND       PRES   REMARKS
MILWAUKEE      CLOUDY    52  48  86 E5        30.06S
6HR MIN TEMP:  51; 6HR MAX TEMP:  58; 6HR PCP:  0.10;

WAUKESHA       CLOUDY    54  45  71 CALM      30.06S
MILWAUKEE/TIMM CLOUDY    52  48  87 CALM      30.06S
RACINE         LGT RAIN  54  48  80 CALM      30.07S
6HR MIN TEMP:  54; 6HR MAX TEMP:  58; 6HR PCP:  0.01;

BURLINGTON     LGT RAIN  49  47  95 SW3       30.06R
6HR MIN TEMP:  49; 6HR MAX TEMP:  59; 6HR PCP:  0.03;

KENOSHA        RAIN      55  45  68 S12       30.05S
6HR MIN TEMP:  55; 6HR MAX TEMP:  61; 6HR PCP:  0.01;

FOND DU LAC    CLOUDY    50  47  89 CALM      30.05R
6HR MIN TEMP:  49; 6HR MAX TEMP:  54; 6HR PCP:  0.16;

SHEBOYGAN      LGT RAIN  49  48  97 S7        30.05F FOG
6HR MIN TEMP:  49; 6HR MAX TEMP:  56; 6HR PCP:  0.13;

WEST BEND      CLOUDY    50  45  81 CALM      30.05S
JUNEAU         CLOUDY    49  48  94 SE6       30.05S
6HR MIN TEMP:  49; 6HR MAX TEMP:  54; 6HR PCP:  0.08;

$$

LSZ147-162-240100-
LAKE SUPERIOR

STATION/POSITION TIME  TEMP    WIND        PRES    WAVE
                       AIR SEA DIR/SP/G            HT/PER
                 (UTC) (F)     (DEG/KT/KT) (MB)    (FT/S)
W MID LAKE BUOY  2350   47 46  230/  4/  6 1014.9R   1
DEVILS ISLAND    0000   51     130/  4/  5 1014.7F
PORT WING        2340   52     160/  4/  7 1014.6R
SAXON HARBOR     2300   54      CALM  /  7 1014.9S
$$

LMZ867-665-643>646-240100-
LAKE MICHIGAN

STATION/POSITION TIME  TEMP    WIND        PRES    WAVE



USA.gov is the U.S. government's official web portal to all federal, state and local government web resources and services.